Weather Roundup
Issued by NWS Corpus Christi, TX

Home | Current Version | Previous Version | Text Only | Print | Product List | Glossary On
Versions: 1 2 3 4 5 6 7 8 9 10 11 12 13 14 15 16 17 18 19 20 21 22 23 24 25 26 27 28 29 30 31 32 33 34 35 36 37 38 39 40 41 42 43 44 45 46 47 48 49 50
000
ASUS44 KCRP 181810
HRRCRP

SOUTH TEXAS REGIONAL WEATHER ROUNDUP
NATIONAL WEATHER SERVICE CORPUS CHRISTI TX
100 PM CDT THU SEP 18 2014


TXZ229>244-181900-
...CORPUS CHRISTI AREA OBSERVATIONS...

CITY           SKY/WX    TMP DP  RH WIND       PRES   REMARKS
CORPUS CHRISTI PTSUNNY   90  75  61 S16       29.83F HX 100
NAS CORPUS CHR PTSUNNY   89  78  70 S14       29.84F HX 103
ROCKPORT       MOSUNNY   89  76  65 S13G20    29.84F HX 100
KINGSVILLE NAS PTSUNNY   92  78  63 S15       29.83F HX 107
ALICE          MOSUNNY   91  75  59 S15       29.83F HX 101
FALFURRIAS     PTSUNNY  N/A N/A N/A S14G22    29.83F
$$

...VICTORIA AREA OBSERVATIONS...

CITY           SKY/WX    TMP DP  RH WIND       PRES   REMARKS
VICTORIA       PTSUNNY   89  75  63 N9        29.87F HX  99
BEEVILLE       PTSUNNY   89  73  58 S13       29.85F HX  96
PLEASANTON     PTSUNNY   92  70  48 S8        29.86F HX  98
SAN ANTONIO    PTSUNNY   87  70  56 S8        29.89F HX  92
$$

...LAREDO AREA OBSERVATIONS...

CITY           SKY/WX    TMP DP  RH WIND       PRES   REMARKS
LAREDO         PTSUNNY   89  72  57 S16G22    29.86F HX  96
COTULLA        MOSUNNY   98  70  40 S10G21    29.84F HAZE    HX 105
DEL RIO        CLOUDY    82  72  71 SE7       29.86F
MCALLEN        PTSUNNY   88  76  67 S14       29.84F HX  99
HEBBRONVILLE     N/A     87  72  60 SE12G18   29.86F HX  93
$$

...OTHER TEXAS OBSERVATIONS...

CITY           SKY/WX    TMP DP  RH WIND       PRES   REMARKS
BROWNSVILLE    MOSUNNY   90  76  63 SE17G25   29.85F HX 101
HOUSTON        HVY RAIN  75  74  96 NE3       29.92S
COL. STATION   CLOUDY    81  75  82 E8        29.88F
AUSTIN         PTSUNNY   86  71  60 CALM      29.89F HX  91
WACO           MOSUNNY   86  74  67 N3        29.89F HX  94
FORT WORTH     PTSUNNY   86  71  60 E7        29.92R HX  91
WICHITA FALLS  CLOUDY    81  72  74 NE14G24   29.95S
LUBBOCK        LGT RAIN  66  64  93 E16       30.03F FOG
EL PASO        LGT RAIN  67  65  93 N10       30.00F FOG
$$

...MARINE OBSERVATIONS...

STATION/POSITION TIME  SKY/WX   TEMP    WIND        PRES    VSBY  WAVE   SWELL
                                AIR SEA DIR/SP/G                  HT/PER HT/PER
                 (UTC)          (F)     (DEG/KT/KT) (MB)    (MI)  (FT/S) (FT/S)
PORT ARANSAS     1800            84 85  170/ 15/ 17 1011.2F
BUOY 90 E PORT A 1800            84 85  190/ 10/ 12 1011.9F         2/ 4   2/ 6
BUOY 45 SE BAFFI 1800            84 85  180/ 14/ 16 1010.4F         3/ 4
BUOY 200 E PT IS 1800            85 86  180/  8/ 10 1012.1F         2/ 6   2/ 6
BUOY 15 E GALVES 1800            80 83   80/ 12/ 14 1011.7F         1/ 6
$$



USA.gov is the U.S. government's official web portal to all federal, state and local government web resources and services.